Retour au catalogue

BREEZE-M DEB

LostHEO
NORAD 34248·DEBRIS·🇷🇺 Russia

Lancé Feb 28, 2006 depuis Baikonur Cosmodrome

Loading…

Prochains Passages (prochaines 24 heures)

TLE

PériméSource: Space-Track

Époque: Jun 27, 2026, 10:21 UTC

1 34248U 06006BP  26178.43184956  .00010417  00000-0  53283-2 0  9993
2 34248  51.6795 194.7618 4633339 168.5352 207.5176  6.11236934 44688

Suivez BREEZE-M DEB en temps réel avec AllMySat

Download on the App Store